Regional Weather Roundup
Issued by NWS Wakefield, VA

Home | Current Version | Previous Version | Text Only | Print | Product List | Glossary On
Versions: 1 2 3 4 5 6 7 8 9 10 11 12 13 14 15 16 17 18 19 20 21 22 23 24 25 26 27 28 29 30 31 32 33 34 35 36 37 38 39 40 41 42 43 44 45 46 47 48 49 50
000
ASUS41 KAKQ 230515
RWRAKQ

REGIONAL WEATHER ROUNDUP
NATIONAL WEATHER SERVICE WAKEFIELD VA
100 AM EDT FRI JUN 23 2017

Note: "fair" indicates few or no clouds below 12,000 feet with no
significant weather and/or obstructions to visibility. * = Denotes
station may not report precipitation (e.g., rain,snow,etc.),
thunder or fog.

VAZ042-051-052>054-056-230600-
NORTHERN VIRGINIA

CITY           SKY/WX    TMP DP  RH WIND       PRES   REMARKS
WASH NATIONAL  CLOUDY    79  75  87 S7        29.94F
DULLES         CLOUDY    75  70  84 S6        29.93F
FORT BELVOIR   CLOUDY    79  70  74 S5        29.93F
QUANTICO       CLOUDY    80  73  79 SW9       29.95F
FREDERICKSBRG* MOCLDY    77  72  84 SW7       29.95F
STAFFORD*      MOCLDY    76  73  91 CALM      29.99F
WARRENTON      CLOUDY    76  69  77 CALM      29.94F
CULPEPER*      CLOUDY    76  72  87 S3        29.95F
MANASSAS*      NOT AVBL
LEESBURG*      CLOUDY    77  73  88 CALM      29.94F
WINCHESTER     CLOUDY    75  68  78 W3        29.95F
FRONT ROYAL*   CLOUDY    75  70  83 S3        29.94F
LURAY*         CLOUDY    75  70  83 SW3       29.97F
$$

VAZ048-049-060>072-079>083-230600-
CENTRAL AND SOUTH CENTRAL VIRGINIA

CITY           SKY/WX    TMP DP  RH WIND       PRES   REMARKS
RICHMOND       CLOUDY    78  70  76 SW8       29.99F
CHESTERFIELD*  NOT AVBL
PETERSBURG*    MOCLDY    73  69  85 CALM      30.01F
HANOVER        MOCLDY    77  66  68 S6        29.99F
TAPPAHANNOCK*  MOCLDY    75  70  83 S3        29.99F
QUINTON*       FAIR      76  72  87 CALM      29.98F
CHARLOTTSVILLE CLOUDY    77  71  82 CALM      29.97F
GORDONSVILLE*  CLOUDY    74  72  91 SW5       29.97F
ORANGE*        CLOUDY    73  70  88 SW7       29.96F
LOUISA*        MOCLDY    79  73  83 SW3       29.97F
BUMPASS*       FAIR      74  71  89 SW6       29.98F
FARMVILLE*     DRIZZLE   75  70  85 CALM      30.00F
CREWE*         FAIR      74  70  86 CALM      30.02S
FORT PICKETT*  MOCLDY   N/A N/A N/A S9        30.02F
CHASE CITY*    MOCLDY    73  73  99 CALM      30.04S
CLARKSVILLE*   CLOUDY    72  72 100 SW5       30.03F
SOUTH HILL*    MOCLDY    72  72 100 S5        30.09S
LAWRENCEVILLE* MOCLDY    73  71  93 SW5       30.03S
EMPORIA*       MOCLDY    73  70  88 S3        30.04S
$$

VAZ088>098-230600-
SOUTHEAST VIRGINIA

CITY           SKY/WX    TMP DP  RH WIND       PRES   REMARKS
NORFOLK        CLOUDY    81  72  74 SW12      29.99F
VIRGINIA BEACH CLOUDY    78  71  79 SW10      29.99F
NORFOLK NAVAL  CLOUDY    80  71  74 SW8       30.00F
WEST POINT*    MOCLDY    78  69  74 CALM      29.99F
SALUDA*        FAIR      78  72  82 SW3       29.98F
NEWPORT NEWS   CLOUDY    78  70  76 SW13      29.99F
LANGLEY AFB    CLOUDY    78  71  78 SW16      29.99F
FORT EUSTIS    CLOUDY    78  72  80 SW5       29.97F
WILLIAMSBURG*  CLOUDY    79  73  83 SW3       30.00F
HR EXEC AP*    FAIR      75  72  88 SW6       29.99S
FRANKLIN*      CLOUDY    75  72  88 SW6       30.02F
US460-WAKEFLD  PTCLDY    76  72  87 S5        30.00F
$$

VAZ020-022-025-037-045-230600-
WEST CENTRAL AND SOUTHWEST VIRGINIA

CITY           SKY/WX    TMP DP  RH WIND       PRES   REMARKS
STAUNTON*      CLOUDY    73  67  81 SW5       30.03F
WAYNESBORO*    CLOUDY    74  68  81 SW12G22   30.04S
HOT SPRINGS VA RAIN      61  59  94 W17       30.15F
LYNCHBURG      CLOUDY    73  70  90 CALM      30.03F
DANVILLE       CLOUDY    73  73 100 SW5       30.04F
SOUTH BOSTON*  MOCLDY    73  72  95 SW3       30.03F
MARTINSVILLE   CLOUDY    70  69  96 CALM      30.08F
ROANOKE        CLOUDY    72  71  97 S3        30.06F
BLACKSBURG     CLOUDY    69  67  91 CALM      30.12F
DUBLIN*        RAIN      70  64  82 SW3       30.10F
MARION*        CLOUDY    69  66  89 CALM      30.11F
HILLSVILLE*    DRIZZLE   67  63  86 CALM      30.11F
RICHLANDS*     CLOUDY    70  64  81 S6        30.08F
WISE*          CLOUDY    70  70 100 S9G17     30.09S
ABINGDON*      DRIZZLE   71  70  99 CALM      30.07F
$$

MDZ021>025-VAZ099-100-230600-
SOUTHERN MARYLAND AND THE DELMARVA PENINSULA

CITY           SKY/WX    TMP DP  RH WIND       PRES   REMARKS
PATUXENT RIVER MOCLDY    78  71  79 SW8       29.95F
BAY BRIDGE APT CLOUDY    79  73  83 SW7       29.93F
LEONARDTOWN    PTCLDY    77  70  78 SW7       29.97F
DOVER          CLOUDY    77  77 100 S6        29.92F
GEORGETOWN     PTCLDY    76  73  91 SW5       29.95F
EASTON         PTCLDY    79  73  81 SW6       29.98F
CAMBRIDGE      CLEAR     75  73  94 S3        29.95S
SALISBURY      PTCLDY    75  75 100 SW5       29.96F
OCEAN CITY     CLOUDY    77  74  90 SW5       29.96F
WALLOPS ISLAND PTCLDY    77  74  90 SW6       29.97F
ACCOMACK*      MOCLDY    77  73  86 SW5       29.98F
$$

NCZ012>017-030>032-230600-
NORTH CENTRAL AND EASTERN NORTH CAROLINA

CITY           SKY/WX    TMP DP  RH WIND       PRES   REMARKS
ROANOKE RAPIDS FAIR      73  72  94 SW8       30.04S
RALEIGH        CLOUDY    74  72  93 SW5       30.06F
ELIZABETH CITY CLOUDY    78  73  84 SW10      30.02F
AHOSKIE*         N/A     73  71  93 CALM      30.04S
EDENTON*       CLOUDY    80  74  80 CALM      30.05S
CURRITUCK*     CLOUDY    79  74  86 SW6       30.02F
KILL DEVIL HLS CLOUDY    78  71  79 CALM      30.02F
MANTEO         CLOUDY    78  74  87 W9        30.04F
CAPE HATTERAS  CLOUDY    80  76  87 SW9       30.05F
TARBORO*       NOT AVBL
GOLDSBORO      MOCLDY    75  75 100 CALM      30.04F
WASHINGTON     CLOUDY    76  74  92 SW7       30.05F
GREENVILLE     CLOUDY    77  75  94 SW7       30.07S
NEW BERN       MOCLDY    76  76 100 SW5       30.07F
WILMINGTON     CLOUDY    78  77  96 S7        30.07S
$$

VAZ048-230600-
ELSEWHERE

CITY           SKY/WX    TMP DP  RH WIND       PRES   REMARKS
HARRISBURG PA  CLOUDY    72  70  93 CALM      29.90F
BALTIMORE      MOCLDY    76  73  91 SW5       29.92F
ANNAPOLIS      MOCLDY    79  75  87 SW3       29.92F
ANDREWS AFB    MOCLDY    77  70  80 SW9       29.93F
PHILADELPHIA   CLOUDY    79  71  76 S7        29.91F
HENDERSON NC   CLOUDY    70  68  93 SW8       30.05F
GREENSBORO     CLOUDY    73  73 100 SW5       30.06F
ROCKY MOUNT    CLOUDY    75  73  93 SW5       30.05F
$$

VAZ100-230600-
MARINE

STATION/POSITION TIME  TEMP    WIND        PRES    WAVE   SWELL
                       AIR SEA DIR/SP/G            HT/PER HT/PER
                 (UTC) (F)     (DEG/KT/KT) (MB)    (FT/S) (FT/S)
BRANDYWINE LGT   0442   75     200/  9/ 10 1014.2F
CAPE MAY NJ      0442   76 68  200/  6/  9 1013.7F
LEWES DE         0442   78 71  220/  5/  7 1013.8F
15NM E FENWICK I 0450   71 69  200/  8/  8 1014.8F   2/ 7   2/ 7
OCEAN-CITY-INLET 0442   71 64  210/  5/  5 1014.8F
WACHAPREAGUE VA  0442   78 81  240/  2/  4 1014.9F
THOMAS POINT MD  0500   79 78  210/ 10/ 10   N/A
GOOSES REEF MD   0500   81 80  270/ 14/ 16 1014.4    1/ 2
COVE POINT MD    0442   79     250/ 13/ 17 1014.5F
SOLOMONS ISLAND  0442   78 77  240/  9/ 11   N/A
BISHOPS HEAD MD  0442   81 82  220/ 11/ 13 1014.5F
PINEY POINT MD   0442          250/  4/  8   N/A
POTOMAC MD       0500   79 78  250/ 12/ 14 1013.6    1
CAMBRIDGE MD     0442   77 81              1014.8F
LEWISETTA VA     0442   79 80  250/  8/ 10 1014.6F
RAPPAHANNOCK LGT 0442          220/  9/ 12 1015.8F
STINGRAY PT      0450   79     280/ 10/ 12 1014.9F
YORK RVR RNG VA  0442   80     260/ 12/ 14 1015.8F
YORKTOWN VA      0442   79 77  250/  8/ 11 1015.2F
JAMESTOWN VA     0500   78 82  230/  8/ 12   N/A     0
DOMINION TERM VA 0442   79     260/  9/ 10 1016.0F
KIPTOPEKE VA     0442      75  280/  6/  7   N/A
CHES BAY BRIDGE  0442   79 69  260/ 14/ 15 1015.4F
CAPE HENRY VA    0442   80     230/  8/ 12   N/A
WILLOUBY STN VA  0442   78     250/ 12/ 12 1015.5F
S CRANEY ISL VA  0442   79     220/  6/  9 1015.8F
CAPE HENRY BUOY  0500      74                N/A     2/ 9
1ST LANDING BUOY 0500   78 72              1015.6    1
CAPE CHARLES BUO 0451      70                N/A     2/ 9
64NM E OF VA BCH 0450   74 71  240/ 10/ 10 1016.6F   3/ 9   2/ 9
DUCK PIER NC     0442   79 65  240/  9/ 12 1016.3F
44100 DUCK FRF   0405      70                N/A     2/ 9
OREGON INLET NC  0442   79 74  220/ 12/ 15 1017.1F
HATTERAS NC      0442   78 79  230/  6/ 10 1017.4F
DIAMOND SHLS NC  0450   80 80  240/ 14/ 16 1017.5F   3/ 9   2/ 9
CAPE LOOKOUT NC  0500   79     230/  7/ 10 1017.9F
$$



USA.gov is the U.S. government's official web portal to all federal, state and local government web resources and services.